Location: Unspecified
(0.0000°N, 0.0000°E)
Time: 17:57:26
(UTC+00:00)

STARLINK 1067 - Pass Details

Date: 20 January 2020
Orbit: 548 x 551 km, 53.0° (Epoch: 17 January)

Event Time Altitude Azimuth Distance (km) Brightness Sun altitude
Rises 05:26:17 0° 210° (SSW) 2,713 7.1 -10.4°
Reaches altitude 10° 05:28:31 10° 208° (SSW) 1,817 6.2 -9.9°
Maximum altitude 05:32:38 71° 124° (ESE) 581 3.9 -9.0°
Drops below altitude 10° 05:36:43 10° 40° (NE) 1,809 6.5 -8.0°
Sets 05:38:57 0° 38° (NE) 2,699 7.4 -7.5°
